Everett, WA

5:42 AM PST on December 15, 2019 (GMT -0800)
Snohomish County

Weather History for KPAE - July, 2019

Change the Weather History Date:

Thursday, July 18, 2019

  Actual Average Record
Temperature  
Mean Temperature 60 °F -  
Max Temperature 68 °F 75 °F 87 °F (2004)
Min Temperature 55 °F 54 °F 44 °F (1969)
Degree Days  
Heating Degree Days 4    
Growing Degree Days 10 (Base 50)    
Moisture  
Dew Point 51 °F    
Average Humidity 77    
Maximum Humidity 96    
Minimum Humidity 49    
Precipitation  
Precipitation 0.35 in - - ()
Sea Level Pressure  
Sea Level Pressure 30.04 in    
Wind  
Wind Speed 6 mph (North)    
Max Wind Speed 12 mph    
Max Gust Speed -    
Visibility 10 miles    
Events Rain    
Averages and records for this station are not official NWS values.
T = Trace of Precipitation, MM = Missing Value Source: NWS Daily Summary

Daily Weather History Graph

Daily Weather History Graph

Search for Another Location

Airport or City:

Astronomy

Jul. 18, 2019 Rise Set
Actual Time 5:28 AM PDT 9:01 PM PDT
Civil Twilight 4:50 AM PDT 9:39 PM PDT
Nautical Twilight 3:58 AM PDT 10:31 PM PDT
Astronomical Twilight 2:47 AM PDT 11:40 PM PDT
Moon 10:24 PM PDT (7/18) 7:06 AM PDT (7/18)
Length of Visible Light 16h 49m
Length of Day
15h 32m
Waning Gibbous, 97% of the Moon is Illuminated
Jul 18
Waning Gibbous
Jul 24
Last Quarter
Jul 31
New
Aug 7
First Quarter
Aug 15
Full

Hourly Weather History & Observations

Time (PDT) Temp. Dew Point Humidity Pressure Visibility Wind Dir Wind Speed Gust Speed Precip Events Conditions
12:53 AM 55.0 °F 54.0 °F 96% 29.94 in 5.0 mi North 11.5 mph - 0.03 in Rain Rain
1:30 AM 55.9 °F 54.0 °F 93% 29.96 in 9.0 mi North 8.1 mph - 0.01 in Rain Light Rain
1:53 AM 55.0 °F 53.1 °F 93% 29.96 in 8.0 mi North 9.2 mph - 0.02 in Rain Light Rain
2:42 AM 55.0 °F 53.1 °F 93% 29.96 in 10.0 mi North 9.2 mph - 0.02 in   Overcast
2:53 AM 55.0 °F 53.1 °F 93% 29.96 in 10.0 mi North 6.9 mph - 0.02 in   Overcast
3:53 AM 55.0 °F 52.0 °F 89% 29.99 in 9.0 mi NNW 5.8 mph - 0.01 in Rain Light Rain
4:53 AM 55.0 °F 51.1 °F 86% 30.00 in 10.0 mi Variable 4.6 mph - 0.06 in   Overcast
5:53 AM 55.9 °F 51.1 °F 84% 30.01 in 10.0 mi NNE 4.6 mph - 0.00 in Rain Light Rain
6:53 AM 55.9 °F 50.0 °F 80% 30.02 in 10.0 mi NNE 6.9 mph - 0.00 in   Overcast
6:56 AM 55.9 °F 50.0 °F 80% 30.03 in 10.0 mi NNE 6.9 mph - N/A   Overcast
7:53 AM 57.0 °F 51.1 °F 81% 30.03 in 10.0 mi ENE 4.6 mph - N/A   Overcast
8:00 AM 57.0 °F 52.0 °F 83% 30.03 in 10.0 mi Variable 3.5 mph - N/A   Overcast
8:09 AM 57.0 °F 53.1 °F 87% 30.04 in 10.0 mi Variable 3.5 mph - N/A   Overcast
8:31 AM 57.0 °F 52.0 °F 83% 30.05 in 10.0 mi Calm Calm - N/A   Overcast
8:53 AM 57.9 °F 53.1 °F 84% 30.06 in 10.0 mi East 5.8 mph - N/A   Overcast
9:02 AM 57.0 °F 52.0 °F 83% 30.06 in 10.0 mi East 5.8 mph - N/A   Overcast
9:53 AM 57.9 °F 52.0 °F 81% 30.06 in 10.0 mi West 3.5 mph - N/A   Mostly Cloudy
10:11 AM 59.0 °F 53.1 °F 81% 30.06 in 10.0 mi South 5.8 mph - N/A   Mostly Cloudy
10:53 AM 61.0 °F 51.1 °F 70% 30.06 in 10.0 mi Variable 3.5 mph - N/A   Overcast
11:28 AM 62.1 °F 52.0 °F 70% 30.07 in 10.0 mi Calm Calm - N/A   Overcast
11:53 AM 64.0 °F 53.1 °F 67% 30.07 in 10.0 mi Variable 3.5 mph - N/A   Mostly Cloudy
12:07 PM 63.0 °F 51.1 °F 65% 30.07 in 10.0 mi WSW 3.5 mph - N/A   Mostly Cloudy
12:11 PM 64.0 °F 51.1 °F 63% 30.07 in 10.0 mi Calm Calm - N/A   Mostly Cloudy
12:53 PM 66.9 °F 50.0 °F 54% 30.07 in 10.0 mi Variable 3.5 mph - N/A   Mostly Cloudy
1:53 PM 66.0 °F 48.0 °F 52% 30.07 in 10.0 mi West 6.9 mph - 0.00 in   Mostly Cloudy
2:53 PM 64.9 °F 51.1 °F 61% 30.07 in 10.0 mi Variable 3.5 mph - 0.00 in   Mostly Cloudy
3:09 PM 66.9 °F 46.9 °F 49% 30.08 in 10.0 mi North 6.9 mph - N/A   Mostly Cloudy
3:53 PM 64.9 °F 48.0 °F 54% 30.06 in 10.0 mi West 8.1 mph - N/A   Overcast
4:53 PM 66.9 °F 48.0 °F 51% 30.06 in 10.0 mi North 5.8 mph - N/A   Overcast
5:53 PM 63.0 °F 48.9 °F 60% 30.06 in 10.0 mi Variable 5.8 mph - N/A   Overcast
6:53 PM 60.1 °F 50.0 °F 69% 30.05 in 10.0 mi North 10.4 mph - 0.00 in   Overcast
7:53 PM 57.0 °F 53.1 °F 87% 30.05 in 6.0 mi North 5.8 mph - 0.02 in Rain Light Rain
8:53 PM 55.9 °F 53.1 °F 90% 30.06 in 10.0 mi North 4.6 mph - 0.10 in Rain Light Rain
9:53 PM 55.9 °F 51.1 °F 84% 30.07 in 10.0 mi NNW 5.8 mph - 0.05 in   Overcast
10:53 PM 55.0 °F 51.1 °F 86% 30.08 in 10.0 mi Calm Calm - 0.01 in Rain Light Rain
11:53 PM 55.0 °F 51.1 °F 86% 30.08 in 9.0 mi Calm Calm - 0.03 in Rain Light Rain